Time,TemperatureF,DewpointF,PressureIn,WindDirection,WindDirectionDegrees,WindSpeedMPH,WindSpeedGustMPH,Humidity,HourlyPrecipIn,Conditions,Clouds,dailyrainin,SoftwareType,DateUTC
2013-06-08 00:02:00,68.4,66.6,29.90,NNW,330,0.0,0.0,94,0.00,RA,,0.00,WeatherDisplay:10.37,2013-06-08 05:02:00,
2013-06-08 00:07:00,68.5,66.7,29.90,NW,307,0.0,0.0,94,0.00,RA,,0.00,WeatherDisplay:10.37,2013-06-08 05:07:00,
2013-06-08 00:12:00,68.4,66.6,29.90,WNW,303,0.0,0.0,94,0.00,CLR,,0.00,WeatherDisplay:10.37,2013-06-08 05:12:00,
2013-06-08 00:17:00,68.2,66.4,29.90,WNW,301,0.0,0.0,94,0.00,CLR,,0.00,WeatherDisplay:10.37,2013-06-08 05:17:00,
2013-06-08 00:22:00,67.7,65.9,29.89,WNW,301,0.0,0.0,94,0.00,CLR,,0.00,WeatherDisplay:10.37,2013-06-08 05:22:00,
2013-06-08 00:27:00,67.5,65.7,29.89,WNW,300,0.0,0.0,94,0.00,CLR,,0.00,WeatherDisplay:10.37,2013-06-08 05:27:00,
2013-06-08 00:32:00,67.3,65.5,29.90,WNW,301,0.0,0.0,94,0.00,CLR,,0.00,WeatherDisplay:10.37,2013-06-08 05:32:00,
2013-06-08 00:37:00,67.3,65.8,29.90,WNW,301,0.0,0.0,95,0.00,CLR,,0.00,WeatherDisplay:10.37,2013-06-08 05:37:00,
2013-06-08 00:42:00,67.0,65.2,29.90,WNW,301,0.0,0.0,94,0.00,CLR,,0.00,WeatherDisplay:10.37,2013-06-08 05:42:00,
2013-06-08 00:47:00,66.8,65.0,29.89,WNW,302,0.0,0.0,94,0.00,CLR,,0.00,WeatherDisplay:10.37,2013-06-08 05:47:00,
2013-06-08 00:52:00,67.2,65.7,29.89,WNW,302,0.0,0.0,95,0.00,CLR,,0.00,WeatherDisplay:10.37,2013-06-08 05:52:00,
2013-06-08 00:57:00,67.3,65.8,29.89,WNW,300,0.0,0.0,95,0.00,CLR,,0.00,WeatherDisplay:10.37,2013-06-08 05:57:00,
2013-06-08 01:02:00,67.0,65.2,29.89,WNW,302,0.0,0.0,94,0.00,CLR,,0.00,WeatherDisplay:10.37,2013-06-08 06:02:00,
2013-06-08 01:07:00,66.9,65.1,29.88,WNW,301,0.0,0.0,94,0.00,CLR,,0.00,WeatherDisplay:10.37,2013-06-08 06:07:00,
2013-06-08 01:12:00,66.6,64.8,29.88,WNW,301,0.0,0.0,94,0.00,CLR,,0.00,WeatherDisplay:10.37,2013-06-08 06:12:00,
2013-06-08 01:17:00,66.3,64.8,29.87,WNW,301,0.0,0.0,95,0.00,CLR,,0.00,WeatherDisplay:10.37,2013-06-08 06:17:00,
2013-06-08 01:22:00,66.2,64.7,29.87,WNW,301,0.0,0.0,95,0.00,CLR,,0.00,WeatherDisplay:10.37,2013-06-08 06:22:00,
2013-06-08 01:27:00,66.2,64.7,29.88,WNW,301,0.0,0.0,95,0.00,CLR,,0.00,WeatherDisplay:10.37,2013-06-08 06:27:00,
2013-06-08 01:32:00,66.2,64.7,29.88,WNW,301,0.0,0.0,95,0.00,CLR,,0.00,WeatherDisplay:10.37,2013-06-08 06:32:00,
2013-06-08 01:37:00,66.4,64.9,29.87,WNW,302,0.0,0.0,95,0.00,CLR,,0.00,WeatherDisplay:10.37,2013-06-08 06:37:00,
2013-06-08 01:42:00,66.8,65.3,29.87,WNW,302,0.0,0.0,95,0.00,CLR,,0.00,WeatherDisplay:10.37,2013-06-08 06:42:00,
2013-06-08 01:47:00,67.1,65.6,29.87,NW,321,0.0,0.0,95,0.00,CLR,,0.00,WeatherDisplay:10.37,2013-06-08 06:47:00,
2013-06-08 01:52:00,67.3,65.8,29.88,NW,320,0.0,0.0,95,0.00,CLR,,0.00,WeatherDisplay:10.37,2013-06-08 06:52:00,
2013-06-08 01:57:00,67.3,65.8,29.88,NW,321,0.0,0.0,95,0.00,CLR,,0.00,WeatherDisplay:10.37,2013-06-08 06:57:00,
2013-06-08 02:02:00,67.1,65.6,29.88,NW,321,0.0,0.0,95,0.00,CLR,,0.00,WeatherDisplay:10.37,2013-06-08 07:02:00,
2013-06-08 02:07:00,66.9,65.4,29.88,NW,321,0.0,0.0,95,0.00,CLR,,0.00,WeatherDisplay:10.37,2013-06-08 07:07:00,
2013-06-08 02:12:00,66.8,65.3,29.88,NNW,347,0.0,0.0,95,0.00,CLR,,0.00,WeatherDisplay:10.37,2013-06-08 07:12:00,
2013-06-08 02:17:00,66.5,64.7,29.87,North,357,0.0,0.0,94,0.00,CLR,,0.00,WeatherDisplay:10.37,2013-06-08 07:17:00,
2013-06-08 02:22:00,66.3,64.5,29.88,North,5,0.0,0.0,94,0.00,CLR,,0.00,WeatherDisplay:10.37,2013-06-08 07:22:00,
2013-06-08 02:27:00,66.2,64.4,29.88,North,5,0.0,0.0,94,0.00,CLR,,0.00,WeatherDisplay:10.37,2013-06-08 07:27:00,
2013-06-08 02:32:00,66.2,64.4,29.88,North,5,0.0,0.0,94,0.00,CLR,,0.00,WeatherDisplay:10.37,2013-06-08 07:32:00,
2013-06-08 02:37:00,66.1,64.3,29.88,North,5,0.0,0.0,94,0.00,CLR,,0.00,WeatherDisplay:10.37,2013-06-08 07:37:00,
2013-06-08 02:42:00,65.9,64.1,29.88,North,5,0.0,0.0,94,0.00,CLR,,0.00,WeatherDisplay:10.37,2013-06-08 07:42:00,
2013-06-08 02:47:00,65.8,64.0,29.88,North,5,0.0,0.0,94,0.01,RA,,0.01,WeatherDisplay:10.37,2013-06-08 07:47:00,
2013-06-08 02:52:00,65.7,63.9,29.88,North,5,0.0,0.0,94,0.01,RA,,0.01,WeatherDisplay:10.37,2013-06-08 07:52:00,
2013-06-08 02:57:00,65.3,63.2,29.88,North,5,0.0,0.0,93,0.01,CLR,,0.01,WeatherDisplay:10.37,2013-06-08 07:57:00,
2013-06-08 03:02:00,64.9,62.8,29.89,SW,232,0.0,0.0,93,0.01,CLR,,0.01,WeatherDisplay:10.37,2013-06-08 08:02:00,
2013-06-08 03:07:00,64.6,62.8,29.89,SSW,212,0.0,0.0,94,0.01,CLR,,0.01,WeatherDisplay:10.37,2013-06-08 08:07:00,
2013-06-08 03:12:00,64.4,62.6,29.89,SSW,212,0.0,0.0,94,0.01,CLR,,0.01,WeatherDisplay:10.37,2013-06-08 08:12:00,
2013-06-08 03:17:00,64.7,63.2,29.89,SSW,212,0.0,0.0,95,0.01,CLR,,0.01,WeatherDisplay:10.37,2013-06-08 08:17:00,
2013-06-08 03:22:00,64.9,63.4,29.89,SSW,212,0.0,0.0,95,0.01,CLR,,0.01,WeatherDisplay:10.37,2013-06-08 08:22:00,
2013-06-08 03:27:00,64.7,62.9,29.90,SSW,212,0.0,0.0,94,0.01,CLR,,0.01,WeatherDisplay:10.37,2013-06-08 08:27:00,
2013-06-08 03:32:00,64.6,62.8,29.90,SSW,212,0.0,0.0,94,0.01,CLR,,0.01,WeatherDisplay:10.37,2013-06-08 08:32:00,
2013-06-08 03:37:00,64.5,62.7,29.90,SSW,212,0.0,0.0,94,0.01,CLR,,0.01,WeatherDisplay:10.37,2013-06-08 08:37:00,
2013-06-08 03:42:00,64.6,62.8,29.90,SW,215,0.0,0.0,94,0.01,CLR,,0.01,WeatherDisplay:10.37,2013-06-08 08:42:00,
2013-06-08 03:47:00,64.8,63.0,29.90,NW,309,0.0,0.0,94,0.00,CLR,,0.01,WeatherDisplay:10.37,2013-06-08 08:47:00,
2013-06-08 03:52:00,64.9,62.8,29.90,NW,309,0.0,0.0,93,0.00,CLR,,0.01,WeatherDisplay:10.37,2013-06-08 08:52:00,
2013-06-08 03:57:00,64.8,62.7,29.89,NW,309,0.0,0.0,93,0.00,CLR,,0.01,WeatherDisplay:10.37,2013-06-08 08:57:00,
2013-06-08 04:02:00,64.7,62.6,29.89,NW,307,0.0,0.0,93,0.00,CLR,,0.01,WeatherDisplay:10.37,2013-06-08 09:02:00,
2013-06-08 04:07:00,64.9,62.8,29.89,NW,307,0.0,0.0,93,0.00,CLR,,0.01,WeatherDisplay:10.37,2013-06-08 09:07:00,
2013-06-08 04:12:00,64.8,62.7,29.89,NW,309,0.0,0.0,93,0.00,CLR,,0.01,WeatherDisplay:10.37,2013-06-08 09:12:00,
2013-06-08 04:17:00,64.8,62.7,29.89,NW,310,0.0,0.0,93,0.00,CLR,,0.01,WeatherDisplay:10.37,2013-06-08 09:17:00,
2013-06-08 04:22:00,64.7,62.6,29.88,NW,310,0.0,0.0,93,0.00,CLR,,0.01,WeatherDisplay:10.37,2013-06-08 09:22:00,
2013-06-08 04:27:00,64.7,62.6,29.89,NW,309,0.0,0.0,93,0.00,CLR,,0.01,WeatherDisplay:10.37,2013-06-08 09:27:00,
2013-06-08 04:32:00,64.6,62.5,29.89,NW,309,0.0,0.0,93,0.00,CLR,,0.01,WeatherDisplay:10.37,2013-06-08 09:32:00,
2013-06-08 04:37:00,64.3,62.2,29.89,NW,309,0.0,0.0,93,0.00,CLR,,0.01,WeatherDisplay:10.37,2013-06-08 09:37:00,
2013-06-08 04:42:00,64.4,62.3,29.89,NW,310,0.0,0.0,93,0.00,CLR,,0.01,WeatherDisplay:10.37,2013-06-08 09:42:00,
2013-06-08 04:47:00,64.6,62.2,29.89,NW,309,0.0,0.0,92,0.00,CLR,,0.01,WeatherDisplay:10.37,2013-06-08 09:47:00,
2013-06-08 04:52:00,64.5,62.1,29.89,NW,309,0.0,0.0,92,0.00,CLR,,0.01,WeatherDisplay:10.37,2013-06-08 09:52:00,
2013-06-08 04:57:00,64.2,62.1,29.89,NW,309,0.0,0.0,93,0.00,CLR,,0.01,WeatherDisplay:10.37,2013-06-08 09:57:00,
2013-06-08 05:02:00,64.1,62.0,29.89,NW,309,0.0,0.0,93,0.00,CLR,,0.01,WeatherDisplay:10.37,2013-06-08 10:02:00,
2013-06-08 05:07:00,63.9,61.8,29.88,NW,309,0.0,0.0,93,0.00,CLR,,0.01,WeatherDisplay:10.37,2013-06-08 10:07:00,
2013-06-08 05:12:00,63.9,61.8,29.88,NW,309,0.0,0.0,93,0.00,CLR,,0.01,WeatherDisplay:10.37,2013-06-08 10:12:00,
2013-06-08 05:17:00,64.1,61.7,29.88,NW,309,0.0,0.0,92,0.00,CLR,,0.01,WeatherDisplay:10.37,2013-06-08 10:17:00,
2013-06-08 05:22:00,64.2,61.5,29.88,NW,309,0.0,0.0,91,0.00,CLR,,0.01,WeatherDisplay:10.37,2013-06-08 10:22:00,
2013-06-08 05:27:00,64.3,61.3,29.88,NW,309,0.0,0.0,90,0.00,CLR,,0.01,WeatherDisplay:10.37,2013-06-08 10:27:00,
2013-06-08 05:32:00,64.3,61.3,29.88,NW,309,0.0,0.0,90,0.00,CLR,,0.01,WeatherDisplay:10.37,2013-06-08 10:32:00,
2013-06-08 05:37:00,64.0,61.0,29.88,NW,309,0.0,0.0,90,0.00,CLR,,0.01,WeatherDisplay:10.37,2013-06-08 10:37:00,
2013-06-08 05:42:00,63.8,60.8,29.88,NW,309,0.0,0.0,90,0.00,CLR,,0.01,WeatherDisplay:10.37,2013-06-08 10:42:00,
2013-06-08 05:47:00,63.6,60.9,29.89,NW,309,0.0,0.0,91,0.00,CLR,,0.01,WeatherDisplay:10.37,2013-06-08 10:47:00,
2013-06-08 05:52:00,63.3,60.6,29.89,NW,309,0.0,0.0,91,0.00,CLR,,0.01,WeatherDisplay:10.37,2013-06-08 10:52:00,
2013-06-08 05:57:00,63.0,60.6,29.88,NW,309,0.0,0.0,92,0.00,CLR,,0.01,WeatherDisplay:10.37,2013-06-08 10:57:00,
2013-06-08 06:02:00,62.9,60.5,29.88,NW,309,0.0,0.0,92,0.00,CLR,,0.01,WeatherDisplay:10.37,2013-06-08 11:02:00,
2013-06-08 06:07:00,62.8,60.4,29.88,NW,309,0.0,0.0,92,0.00,CLR,,0.01,WeatherDisplay:10.37,2013-06-08 11:07:00,
2013-06-08 06:12:00,63.2,60.8,29.88,NW,310,0.0,0.0,92,0.00,CLR,,0.01,WeatherDisplay:10.37,2013-06-08 11:12:00,
2013-06-08 06:17:00,63.7,60.7,29.89,NW,318,0.0,0.0,90,0.00,CLR,,0.01,WeatherDisplay:10.37,2013-06-08 11:17:00,
2013-06-08 06:22:00,63.8,60.8,29.89,NW,318,0.0,0.0,90,0.00,CLR,,0.01,WeatherDisplay:10.37,2013-06-08 11:22:00,
2013-06-08 06:27:00,63.5,60.5,29.89,NW,318,0.0,0.0,90,0.00,CLR,,0.01,WeatherDisplay:10.37,2013-06-08 11:27:00,
2013-06-08 06:32:00,63.1,60.4,29.89,NW,318,0.0,0.0,91,0.00,CLR,,0.01,WeatherDisplay:10.37,2013-06-08 11:32:00,
2013-06-08 06:37:00,63.1,60.7,29.89,NW,318,0.0,0.0,92,0.00,CLR,,0.01,WeatherDisplay:10.37,2013-06-08 11:37:00,
2013-06-08 06:42:00,63.5,60.5,29.89,NNW,345,0.0,0.0,90,0.00,CLR,,0.01,WeatherDisplay:10.37,2013-06-08 11:42:00,
2013-06-08 06:47:00,64.0,60.7,29.89,North,354,0.0,0.0,89,0.00,CLR,,0.01,WeatherDisplay:10.37,2013-06-08 11:47:00,
2013-06-08 06:52:00,64.3,61.0,29.89,North,353,0.0,0.0,89,0.00,CLR,,0.01,WeatherDisplay:10.37,2013-06-08 11:52:00,
2013-06-08 06:57:00,64.8,61.5,29.89,North,353,0.0,0.0,89,0.00,CLR,,0.01,WeatherDisplay:10.37,2013-06-08 11:57:00,
2013-06-08 07:02:00,65.3,61.7,29.89,North,353,0.0,0.0,88,0.00,CLR,,0.01,WeatherDisplay:10.37,2013-06-08 12:02:00,
2013-06-08 07:07:00,65.8,61.8,29.89,North,352,0.0,0.0,87,0.00,CLR,,0.01,WeatherDisplay:10.37,2013-06-08 12:07:00,
2013-06-08 07:12:00,66.2,62.2,29.90,North,353,0.0,0.0,87,0.00,CLR,,0.01,WeatherDisplay:10.37,2013-06-08 12:12:00,
2013-06-08 07:17:00,66.5,62.5,29.90,North,351,0.0,0.0,87,0.00,CLR,,0.01,WeatherDisplay:10.37,2013-06-08 12:17:00,
2013-06-08 07:22:00,66.7,62.7,29.90,North,354,0.0,0.0,87,0.00,CLR,,0.01,WeatherDisplay:10.37,2013-06-08 12:22:00,
2013-06-08 07:27:00,67.0,62.7,29.90,North,351,0.0,0.0,86,0.00,CLR,,0.01,WeatherDisplay:10.37,2013-06-08 12:27:00,
2013-06-08 07:32:00,67.3,62.6,29.90,North,4,0.0,0.0,85,0.00,CLR,,0.01,WeatherDisplay:10.37,2013-06-08 12:32:00,
2013-06-08 07:37:00,67.8,62.8,29.90,North,6,1.1,0.0,84,0.00,CLR,,0.01,WeatherDisplay:10.37,2013-06-08 12:37:00,
2013-06-08 07:42:00,68.3,62.9,29.90,NNE,25,1.1,1.1,83,0.00,CLR,,0.01,WeatherDisplay:10.37,2013-06-08 12:42:00,
2013-06-08 07:47:00,68.5,62.8,29.90,NE,47,0.0,0.9,82,0.00,CLR,,0.01,WeatherDisplay:10.37,2013-06-08 12:47:00,
2013-06-08 07:52:00,68.7,62.3,29.90,NNE,26,1.1,0.0,80,0.00,CLR,,0.01,WeatherDisplay:10.37,2013-06-08 12:52:00,
2013-06-08 07:57:00,69.0,62.2,29.90,East,91,0.0,0.0,79,0.00,CLR,,0.01,WeatherDisplay:10.37,2013-06-08 12:57:00,
2013-06-08 08:02:00,69.2,62.8,29.90,ENE,58,0.0,0.0,80,0.00,CLR,,0.01,WeatherDisplay:10.37,2013-06-08 13:02:00,
2013-06-08 08:07:00,69.4,63.0,29.90,NNE,25,0.0,0.0,80,0.00,CLR,,0.01,WeatherDisplay:10.37,2013-06-08 13:07:00,
2013-06-08 08:12:00,69.7,63.3,29.91,NE,53,0.0,0.0,80,0.00,CLR,,0.01,WeatherDisplay:10.37,2013-06-08 13:12:00,
2013-06-08 08:17:00,70.0,63.2,29.90,ENE,60,0.0,0.0,79,0.00,CLR,,0.01,WeatherDisplay:10.37,2013-06-08 13:17:00,
2013-06-08 08:22:00,70.0,62.8,29.90,NE,41,0.0,0.0,78,0.00,CLR,,0.01,WeatherDisplay:10.37,2013-06-08 13:22:00,
2013-06-08 08:27:00,70.1,63.3,29.90,NE,41,0.0,0.3,79,0.00,CLR,,0.01,WeatherDisplay:10.37,2013-06-08 13:27:00,
2013-06-08 08:32:00,70.3,63.8,29.90,ENE,58,0.0,0.0,80,0.00,CLR,,0.01,WeatherDisplay:10.37,2013-06-08 13:32:00,
2013-06-08 08:37:00,70.9,64.1,29.90,NNE,32,0.0,0.0,79,0.00,CLR,,0.01,WeatherDisplay:10.37,2013-06-08 13:37:00,
2013-06-08 08:42:00,71.2,64.7,29.90,NNW,345,0.0,0.0,80,0.00,CLR,,0.01,WeatherDisplay:10.37,2013-06-08 13:42:00,
2013-06-08 08:47:00,71.6,64.7,29.90,NE,49,0.0,0.0,79,0.00,CLR,,0.01,WeatherDisplay:10.37,2013-06-08 13:47:00,
2013-06-08 08:52:00,71.9,65.4,29.91,East,98,0.0,0.0,80,0.00,CLR,,0.01,WeatherDisplay:10.37,2013-06-08 13:52:00,
2013-06-08 08:57:00,72.1,65.2,29.90,ENE,72,1.1,0.0,79,0.00,CLR,,0.01,WeatherDisplay:10.37,2013-06-08 13:57:00,
2013-06-08 09:02:00,72.4,65.9,29.90,East,81,0.0,0.0,80,0.00,CLR,,0.01,WeatherDisplay:10.37,2013-06-08 14:02:00,
2013-06-08 09:07:00,72.9,65.6,29.91,NE,51,0.0,0.0,78,0.00,CLR,,0.01,WeatherDisplay:10.37,2013-06-08 14:07:00,
2013-06-08 09:12:00,73.6,65.9,29.91,East,81,0.0,0.0,77,0.00,CLR,,0.01,WeatherDisplay:10.37,2013-06-08 14:12:00,
2013-06-08 09:17:00,74.1,66.0,29.91,East,81,0.0,0.0,76,0.00,CLR,,0.01,WeatherDisplay:10.37,2013-06-08 14:17:00,
2013-06-08 09:22:00,74.3,66.2,29.91,ENE,63,3.5,3.5,76,0.00,CLR,,0.01,WeatherDisplay:10.37,2013-06-08 14:22:00,
2013-06-08 09:27:00,74.8,66.3,29.91,East,89,0.0,0.0,75,0.00,CLR,,0.01,WeatherDisplay:10.37,2013-06-08 14:27:00,
2013-06-08 09:32:00,75.2,66.7,29.91,ESE,112,0.0,0.1,75,0.00,CLR,,0.01,WeatherDisplay:10.37,2013-06-08 14:32:00,
2013-06-08 09:37:00,75.3,66.8,29.91,East,96,1.1,1.1,75,0.00,CLR,,0.01,WeatherDisplay:10.37,2013-06-08 14:37:00,
2013-06-08 09:42:00,75.7,67.6,29.91,ENE,77,1.1,1.1,76,0.00,CLR,,0.01,WeatherDisplay:10.37,2013-06-08 14:42:00,
2013-06-08 09:47:00,76.1,67.6,29.90,SE,139,3.5,3.5,75,0.00,CLR,,0.01,WeatherDisplay:10.37,2013-06-08 14:47:00,
2013-06-08 09:52:00,76.6,67.7,29.90,East,89,2.3,0.0,74,0.00,CLR,,0.01,WeatherDisplay:10.37,2013-06-08 14:52:00,
2013-06-08 09:57:00,77.2,67.9,29.90,East,87,3.5,3.5,73,0.00,CLR,,0.01,WeatherDisplay:10.37,2013-06-08 14:57:00,
2013-06-08 10:02:00,77.7,68.4,29.90,East,85,3.5,3.5,73,0.00,CLR,,0.01,WeatherDisplay:10.37,2013-06-08 15:02:00,
2013-06-08 10:07:00,78.6,68.4,29.90,North,6,0.0,0.4,71,0.00,CLR,,0.01,WeatherDisplay:10.37,2013-06-08 15:07:00,
2013-06-08 10:12:00,78.4,68.6,29.90,East,82,3.5,0.0,72,0.00,CLR,,0.01,WeatherDisplay:10.37,2013-06-08 15:12:00,
2013-06-08 10:17:00,78.4,68.2,29.90,East,79,3.5,3.5,71,0.00,CLR,,0.01,WeatherDisplay:10.37,2013-06-08 15:17:00,
2013-06-08 10:22:00,78.3,68.5,29.90,ENE,63,0.0,0.0,72,0.00,CLR,,0.01,WeatherDisplay:10.37,2013-06-08 15:22:00,
2013-06-08 10:27:00,78.3,68.5,29.90,East,96,3.5,3.5,72,0.00,CLR,,0.01,WeatherDisplay:10.37,2013-06-08 15:27:00,
2013-06-08 10:32:00,78.3,68.5,29.90,ENE,61,0.0,0.8,72,0.00,CLR,,0.01,WeatherDisplay:10.37,2013-06-08 15:32:00,
2013-06-08 10:37:00,78.5,69.1,29.90,ESE,122,0.0,0.0,73,0.00,CLR,,0.01,WeatherDisplay:10.37,2013-06-08 15:37:00,
2013-06-08 10:42:00,79.1,70.1,29.90,SE,139,2.3,2.3,74,0.00,CLR,,0.01,WeatherDisplay:10.37,2013-06-08 15:42:00,
2013-06-08 10:47:00,79.6,70.6,29.90,ESE,105,0.0,0.0,74,0.00,CLR,,0.01,WeatherDisplay:10.37,2013-06-08 15:47:00,
2013-06-08 10:52:00,79.6,71.4,29.90,ESE,103,0.0,0.0,76,0.00,CLR,,0.01,WeatherDisplay:10.37,2013-06-08 15:52:00,
2013-06-08 10:57:00,80.3,71.6,29.90,SSE,154,3.5,3.5,75,0.00,CLR,,0.01,WeatherDisplay:10.37,2013-06-08 15:57:00,
2013-06-08 11:02:00,80.7,71.6,29.90,ESE,114,4.0,4.0,74,0.00,CLR,,0.01,WeatherDisplay:10.37,2013-06-08 16:02:00,
2013-06-08 11:07:00,81.0,71.5,29.90,SSE,154,4.6,4.6,73,0.00,CLR,,0.01,WeatherDisplay:10.37,2013-06-08 16:07:00,
2013-06-08 11:12:00,80.7,71.2,29.90,East,86,3.5,3.5,73,0.00,CLR,,0.01,WeatherDisplay:10.37,2013-06-08 16:12:00,
2013-06-08 11:17:00,80.6,71.9,29.90,ESE,103,4.6,4.6,75,0.00,CLR,,0.01,WeatherDisplay:10.37,2013-06-08 16:17:00,
2013-06-08 11:22:00,80.3,71.3,29.90,SSE,148,4.6,4.6,74,0.00,CLR,,0.01,WeatherDisplay:10.37,2013-06-08 16:22:00,
2013-06-08 11:27:00,80.4,72.1,29.90,SE,141,3.5,3.5,76,0.00,CLR,,0.01,WeatherDisplay:10.37,2013-06-08 16:27:00,
2013-06-08 11:32:00,80.3,72.0,29.90,SE,137,10.4,10.4,76,0.00,CLR,,0.01,WeatherDisplay:10.37,2013-06-08 16:32:00,
2013-06-08 11:37:00,80.3,72.4,29.90,SSW,212,9.2,9.2,77,0.00,CLR,,0.01,WeatherDisplay:10.37,2013-06-08 16:37:00,
2013-06-08 11:42:00,80.9,73.0,29.90,SSE,149,8.1,8.1,77,0.00,CLR,,0.01,WeatherDisplay:10.37,2013-06-08 16:42:00,
2013-06-08 11:47:00,81.5,72.8,29.90,SSW,211,4.6,4.6,75,0.00,CLR,,0.01,WeatherDisplay:10.37,2013-06-08 16:47:00,
2013-06-08 11:52:00,82.5,73.4,29.89,SSW,196,10.4,10.4,74,0.00,CLR,,0.01,WeatherDisplay:10.37,2013-06-08 16:52:00,
2013-06-08 11:57:00,82.1,73.0,29.89,SE,135,13.8,13.8,74,0.00,CLR,,0.01,WeatherDisplay:10.37,2013-06-08 16:57:00,
2013-06-08 12:02:00,81.7,73.0,29.89,SSE,165,12.7,12.7,75,0.00,CLR,,0.01,WeatherDisplay:10.37,2013-06-08 17:02:00,
2013-06-08 12:07:00,81.8,72.7,29.89,SSW,193,10.4,10.4,74,0.00,CLR,,0.01,WeatherDisplay:10.37,2013-06-08 17:07:00,
2013-06-08 12:12:00,81.7,72.6,29.89,SSE,149,9.2,9.2,74,0.00,CLR,,0.01,WeatherDisplay:10.37,2013-06-08 17:12:00,
2013-06-08 12:17:00,82.1,72.2,29.89,SSE,156,10.0,10.0,72,0.00,CLR,,0.01,WeatherDisplay:10.37,2013-06-08 17:17:00,
2013-06-08 12:22:00,82.0,72.1,29.88,SSE,156,10.4,10.4,72,0.00,CLR,,0.01,WeatherDisplay:10.37,2013-06-08 17:22:00,
2013-06-08 12:27:00,82.1,72.2,29.88,SE,139,11.5,11.5,72,0.00,CLR,,0.01,WeatherDisplay:10.37,2013-06-08 17:27:00,
2013-06-08 12:32:00,82.1,72.6,29.88,SE,128,11.5,11.5,73,0.00,CLR,,0.01,WeatherDisplay:10.37,2013-06-08 17:32:00,
2013-06-08 12:37:00,82.0,72.1,29.88,SE,132,9.2,9.2,72,0.00,CLR,,0.01,WeatherDisplay:10.37,2013-06-08 17:37:00,
2013-06-08 12:42:00,81.8,72.3,29.88,SSE,163,9.2,9.2,73,0.00,CLR,,0.01,WeatherDisplay:10.37,2013-06-08 17:42:00,
2013-06-08 12:47:00,82.3,72.8,29.87,SSE,150,9.2,9.2,73,0.00,CLR,,0.01,WeatherDisplay:10.37,2013-06-08 17:47:00,
2013-06-08 12:52:00,82.6,72.7,29.87,SSE,148,11.5,11.5,72,0.00,CLR,,0.01,WeatherDisplay:10.37,2013-06-08 17:52:00,
2013-06-08 12:57:00,82.7,72.3,29.87,SE,138,6.9,6.9,71,0.00,CLR,,0.01,WeatherDisplay:10.37,2013-06-08 17:57:00,
2013-06-08 13:02:00,82.7,72.3,29.87,South,179,13.8,13.8,71,0.00,CLR,,0.01,WeatherDisplay:10.37,2013-06-08 18:02:00,
2013-06-08 13:07:00,83.1,71.9,29.86,East,91,8.1,8.1,69,0.00,CLR,,0.01,WeatherDisplay:10.37,2013-06-08 18:07:00,
2013-06-08 13:12:00,83.4,72.2,29.86,SE,124,9.0,9.0,69,0.00,CLR,,0.01,WeatherDisplay:10.37,2013-06-08 18:12:00,
2013-06-08 13:17:00,83.8,71.7,29.86,SSE,162,12.7,12.7,67,0.00,CLR,,0.01,WeatherDisplay:10.37,2013-06-08 18:17:00,
2013-06-08 13:22:00,84.2,72.0,29.85,ESE,113,8.1,9.3,67,0.00,CLR,,0.01,WeatherDisplay:10.37,2013-06-08 18:22:00,
2013-06-08 13:27:00,84.6,72.4,29.85,SSE,150,10.4,10.4,67,0.00,CLR,,0.01,WeatherDisplay:10.37,2013-06-08 18:27:00,
2013-06-08 13:32:00,85.0,72.4,29.84,SSE,166,10.4,10.4,66,0.00,CLR,,0.01,WeatherDisplay:10.37,2013-06-08 18:32:00,
2013-06-08 13:37:00,85.1,71.5,29.84,SE,125,9.2,9.2,64,0.00,CLR,,0.01,WeatherDisplay:10.37,2013-06-08 18:37:00,
2013-06-08 13:42:00,84.5,70.5,29.84,East,84,11.5,11.5,63,0.00,CLR,,0.01,WeatherDisplay:10.37,2013-06-08 18:42:00,
2013-06-08 13:47:00,84.4,72.2,29.84,South,169,12.7,12.7,67,0.00,CLR,,0.01,WeatherDisplay:10.37,2013-06-08 18:47:00,
2013-06-08 13:52:00,85.1,72.0,29.84,SSE,153,10.4,10.4,65,0.00,CLR,,0.01,WeatherDisplay:10.37,2013-06-08 18:52:00,
2013-06-08 13:57:00,85.7,71.7,29.84,SSE,159,11.5,11.5,63,0.00,CLR,,0.01,WeatherDisplay:10.37,2013-06-08 18:57:00,
2013-06-08 14:02:00,86.1,71.6,29.83,South,172,4.0,4.1,62,0.00,CLR,,0.01,WeatherDisplay:10.37,2013-06-08 19:02:00,
2013-06-08 14:07:00,86.1,70.6,29.83,SE,128,6.9,6.9,60,0.00,CLR,,0.01,WeatherDisplay:10.37,2013-06-08 19:07:00,
2013-06-08 14:12:00,86.4,70.9,29.83,SE,146,10.4,10.4,60,0.00,CLR,,0.01,WeatherDisplay:10.37,2013-06-08 19:12:00,
2013-06-08 14:17:00,86.4,71.4,29.83,SE,136,5.8,5.8,61,0.00,CLR,,0.01,WeatherDisplay:10.37,2013-06-08 19:17:00,
2013-06-08 14:22:00,86.8,70.8,29.83,SSW,212,11.5,11.5,59,0.00,CLR,,0.01,WeatherDisplay:10.37,2013-06-08 19:22:00,
2013-06-08 14:27:00,86.7,70.7,29.82,South,173,9.2,9.2,59,0.00,CLR,,0.01,WeatherDisplay:10.37,2013-06-08 19:27:00,
2013-06-08 14:32:00,86.8,72.2,29.82,SSE,155,12.7,12.7,62,0.00,CLR,,0.01,WeatherDisplay:10.37,2013-06-08 19:32:00,
2013-06-08 14:37:00,86.8,71.7,29.82,SSW,203,11.5,11.5,61,0.00,CLR,,0.01,WeatherDisplay:10.37,2013-06-08 19:37:00,
2013-06-08 14:42:00,87.0,71.4,29.82,ESE,118,5.8,5.8,60,0.00,CLR,,0.01,WeatherDisplay:10.37,2013-06-08 19:42:00,
2013-06-08 14:47:00,86.8,71.2,29.82,SE,128,10.4,10.4,60,0.00,CLR,,0.01,WeatherDisplay:10.37,2013-06-08 19:47:00,
2013-06-08 14:52:00,86.6,69.6,29.82,SSW,194,11.5,11.5,57,0.00,CLR,,0.01,WeatherDisplay:10.37,2013-06-08 19:52:00,
2013-06-08 14:57:00,87.0,70.4,29.82,SSW,194,8.1,8.1,58,0.00,CLR,,0.01,WeatherDisplay:10.37,2013-06-08 19:57:00,
2013-06-08 15:02:00,87.3,70.7,29.81,SSW,205,4.6,4.6,58,0.00,CLR,,0.01,WeatherDisplay:10.37,2013-06-08 20:02:00,
2013-06-08 15:07:00,88.0,71.4,29.82,SSE,162,3.5,6.1,58,0.00,CLR,,0.01,WeatherDisplay:10.37,2013-06-08 20:07:00,
2013-06-08 15:12:00,88.1,70.9,29.82,SE,136,10.4,10.4,57,0.00,CLR,,0.01,WeatherDisplay:10.37,2013-06-08 20:12:00,
2013-06-08 15:17:00,88.0,70.3,29.82,ESE,115,5.8,5.8,56,0.00,CLR,,0.01,WeatherDisplay:10.37,2013-06-08 20:17:00,
2013-06-08 15:22:00,87.9,71.8,29.82,ESE,115,5.8,5.8,59,0.00,CLR,,0.01,WeatherDisplay:10.37,2013-06-08 20:22:00,
2013-06-08 15:27:00,88.0,69.8,29.82,SSW,198,9.2,9.2,55,0.00,CLR,,0.01,WeatherDisplay:10.37,2013-06-08 20:27:00,
2013-06-08 15:32:00,87.9,71.3,29.81,South,191,11.5,11.5,58,0.00,CLR,,0.01,WeatherDisplay:10.37,2013-06-08 20:32:00,
2013-06-08 15:37:00,87.2,70.6,29.81,SSW,204,6.9,6.9,58,0.00,CLR,,0.01,WeatherDisplay:10.37,2013-06-08 20:37:00,
2013-06-08 15:42:00,87.5,70.9,29.81,SSW,207,3.5,3.5,58,0.00,CLR,,0.01,WeatherDisplay:10.37,2013-06-08 20:42:00,
2013-06-08 15:47:00,88.4,71.2,29.81,South,170,4.6,4.6,57,0.00,CLR,,0.01,WeatherDisplay:10.37,2013-06-08 20:47:00,
2013-06-08 15:52:00,89.0,70.7,29.81,SSE,154,4.0,4.0,55,0.00,CLR,,0.01,WeatherDisplay:10.37,2013-06-08 20:52:00,
2013-06-08 15:57:00,89.4,70.6,29.81,South,173,11.5,11.5,54,0.00,CLR,,0.01,WeatherDisplay:10.37,2013-06-08 20:57:00,
2013-06-08 16:02:00,90.0,70.6,29.81,SE,138,3.5,8.4,53,0.00,CLR,,0.01,WeatherDisplay:10.37,2013-06-08 21:02:00,
2013-06-08 16:07:00,89.5,70.7,29.81,SSE,165,6.0,6.1,54,0.00,CLR,,0.01,WeatherDisplay:10.37,2013-06-08 21:07:00,
2013-06-08 16:12:00,88.6,70.4,29.81,SE,134,10.4,10.4,55,0.00,CLR,,0.01,WeatherDisplay:10.37,2013-06-08 21:12:00,
2013-06-08 16:17:00,88.0,70.9,29.80,SSW,196,6.9,6.9,57,0.00,CLR,,0.01,WeatherDisplay:10.37,2013-06-08 21:17:00,
2013-06-08 16:22:00,88.1,70.9,29.80,SSE,167,6.9,6.9,57,0.00,CLR,,0.01,WeatherDisplay:10.37,2013-06-08 21:22:00,
2013-06-08 16:27:00,88.0,71.4,29.80,SSE,160,4.6,4.6,58,0.00,CLR,,0.01,WeatherDisplay:10.37,2013-06-08 21:27:00,
2013-06-08 16:32:00,87.8,71.2,29.80,SSE,157,5.8,5.8,58,0.00,CLR,,0.01,WeatherDisplay:10.37,2013-06-08 21:32:00,
2013-06-08 16:37:00,87.8,71.2,29.80,SE,134,3.5,3.5,58,0.00,CLR,,0.01,WeatherDisplay:10.37,2013-06-08 21:37:00,
2013-06-08 16:42:00,87.9,71.3,29.80,ENE,75,4.6,4.6,58,0.00,CLR,,0.01,WeatherDisplay:10.37,2013-06-08 21:42:00,
2013-06-08 16:47:00,87.9,71.3,29.80,ESE,108,5.0,5.0,58,0.00,CLR,,0.01,WeatherDisplay:10.37,2013-06-08 21:47:00,
2013-06-08 16:52:00,87.9,71.3,29.80,ESE,108,9.2,9.2,58,0.00,CLR,,0.01,WeatherDisplay:10.37,2013-06-08 21:52:00,
2013-06-08 16:57:00,87.6,71.0,29.79,ESE,112,5.0,5.0,58,0.00,CLR,,0.01,WeatherDisplay:10.37,2013-06-08 21:57:00,
2013-06-08 17:02:00,87.4,71.3,29.79,SE,134,5.8,5.8,59,0.00,CLR,,0.01,WeatherDisplay:10.37,2013-06-08 22:02:00,
2013-06-08 17:07:00,87.3,70.7,29.79,SE,132,6.9,6.9,58,0.00,CLR,,0.01,WeatherDisplay:10.37,2013-06-08 22:07:00,
2013-06-08 17:12:00,87.1,71.5,29.79,SE,131,6.0,6.0,60,0.00,CLR,,0.01,WeatherDisplay:10.37,2013-06-08 22:12:00,
2013-06-08 17:17:00,87.0,71.9,29.78,ESE,122,3.5,4.0,61,0.00,CLR,,0.01,WeatherDisplay:10.37,2013-06-08 22:17:00,
2013-06-08 17:22:00,86.9,70.8,29.78,East,86,5.8,5.8,59,0.00,CLR,,0.01,WeatherDisplay:10.37,2013-06-08 22:22:00,
2013-06-08 17:27:00,87.1,71.0,29.77,ESE,103,6.9,6.9,59,0.00,CLR,,0.01,WeatherDisplay:10.37,2013-06-08 22:27:00,
2013-06-08 17:32:00,87.7,70.6,29.77,East,84,4.6,4.6,57,0.00,CLR,,0.01,WeatherDisplay:10.37,2013-06-08 22:32:00,
2013-06-08 17:37:00,87.7,71.1,29.77,ENE,70,4.6,4.6,58,0.00,CLR,,0.01,WeatherDisplay:10.37,2013-06-08 22:37:00,
2013-06-08 17:42:00,87.9,71.8,29.76,ENE,70,6.9,6.9,59,0.00,CLR,,0.01,WeatherDisplay:10.37,2013-06-08 22:42:00,
2013-06-08 17:47:00,88.0,71.4,29.76,ENE,75,4.6,4.6,58,0.00,CLR,,0.01,WeatherDisplay:10.37,2013-06-08 22:47:00,
2013-06-08 17:52:00,87.8,72.2,29.76,ESE,111,11.5,12.2,60,0.00,CLR,,0.01,WeatherDisplay:10.37,2013-06-08 22:52:00,
2013-06-08 17:57:00,87.2,72.1,29.76,SE,127,13.8,13.8,61,0.00,CLR,,0.01,WeatherDisplay:10.37,2013-06-08 22:57:00,
2013-06-08 18:02:00,86.7,72.6,29.76,SE,134,19.0,19.0,63,0.00,CLR,,0.01,WeatherDisplay:10.37,2013-06-08 23:02:00,
2013-06-08 18:07:00,86.0,72.4,29.76,SE,145,15.0,15.0,64,0.00,CLR,,0.01,WeatherDisplay:10.37,2013-06-08 23:07:00,
2013-06-08 18:12:00,85.4,71.8,29.76,SE,129,15.0,15.0,64,0.00,CLR,,0.01,WeatherDisplay:10.37,2013-06-08 23:12:00,
2013-06-08 18:17:00,84.9,72.3,29.77,SSE,155,11.5,11.5,66,0.00,CLR,,0.01,WeatherDisplay:10.37,2013-06-08 23:17:00,
2013-06-08 18:22:00,84.7,71.6,29.76,SE,139,11.5,11.5,65,0.00,CLR,,0.01,WeatherDisplay:10.37,2013-06-08 23:22:00,
2013-06-08 18:27:00,84.6,71.5,29.77,SE,125,10.4,10.4,65,0.00,CLR,,0.01,WeatherDisplay:10.37,2013-06-08 23:27:00,
2013-06-08 18:32:00,85.1,72.0,29.77,ESE,117,9.2,9.2,65,0.00,CLR,,0.01,WeatherDisplay:10.37,2013-06-08 23:32:00,
2013-06-08 18:37:00,85.9,72.8,29.77,SE,126,10.4,10.4,65,0.00,CLR,,0.01,WeatherDisplay:10.37,2013-06-08 23:37:00,
2013-06-08 18:42:00,86.3,69.3,29.77,South,174,15.0,15.0,57,0.00,CLR,,0.01,WeatherDisplay:10.37,2013-06-08 23:42:00,
2013-06-08 18:47:00,86.3,68.2,29.78,SE,146,11.5,11.5,55,0.00,CLR,,0.01,WeatherDisplay:10.37,2013-06-08 23:47:00,
2013-06-08 18:52:00,86.3,68.8,29.77,SSE,153,11.5,11.5,56,0.00,CLR,,0.01,WeatherDisplay:10.37,2013-06-08 23:52:00,
2013-06-08 18:57:00,86.1,69.6,29.77,ESE,111,11.5,11.5,58,0.00,CLR,,0.01,WeatherDisplay:10.37,2013-06-08 23:57:00,
2013-06-08 19:03:00,85.9,70.9,29.78,SE,141,11.5,11.5,61,0.00,CLR,,0.01,WeatherDisplay:10.37,2013-06-09 00:03:00,
2013-06-08 19:08:00,85.8,70.8,29.77,SSE,148,11.5,11.5,61,0.00,CLR,,0.01,WeatherDisplay:10.37,2013-06-09 00:08:00,
2013-06-08 19:13:00,85.6,70.6,29.78,SSE,157,12.7,12.7,61,0.00,CLR,,0.01,WeatherDisplay:10.37,2013-06-09 00:13:00,
2013-06-08 19:18:00,85.2,69.7,29.78,SE,133,13.8,13.8,60,0.00,CLR,,0.01,WeatherDisplay:10.37,2013-06-09 00:18:00,
2013-06-08 19:23:00,85.1,70.1,29.78,SSE,150,11.5,11.5,61,0.00,CLR,,0.01,WeatherDisplay:10.37,2013-06-09 00:23:00,
2013-06-08 19:28:00,84.8,70.8,29.78,SE,136,15.0,15.0,63,0.00,CLR,,0.01,WeatherDisplay:10.37,2013-06-09 00:28:00,
2013-06-08 19:33:00,84.6,71.5,29.79,SE,137,11.5,11.5,65,0.00,CLR,,0.01,WeatherDisplay:10.37,2013-06-09 00:33:00,
2013-06-08 19:38:00,84.3,71.7,29.78,SE,137,16.1,16.1,66,0.00,CLR,,0.01,WeatherDisplay:10.37,2013-06-09 00:38:00,
2013-06-08 19:43:00,84.0,71.9,29.78,East,101,13.8,13.8,67,0.00,CLR,,0.01,WeatherDisplay:10.37,2013-06-09 00:43:00,
2013-06-08 19:48:00,83.9,72.2,29.77,ESE,112,12.7,12.7,68,0.00,CLR,,0.01,WeatherDisplay:10.37,2013-06-09 00:48:00,
2013-06-08 19:53:00,83.7,72.4,29.77,ESE,117,12.7,12.7,69,0.00,CLR,,0.01,WeatherDisplay:10.37,2013-06-09 00:53:00,
2013-06-08 19:58:00,83.5,72.3,29.77,ESE,103,13.0,13.0,69,0.00,CLR,,0.01,WeatherDisplay:10.37,2013-06-09 00:58:00,
2013-06-08 20:03:00,83.3,72.5,29.77,SE,141,12.7,12.7,70,0.00,CLR,,0.01,WeatherDisplay:10.37,2013-06-09 01:03:00,
2013-06-08 20:08:00,83.1,72.7,29.77,SE,143,11.5,11.5,71,0.00,CLR,,0.01,WeatherDisplay:10.37,2013-06-09 01:08:00,
2013-06-08 20:13:00,82.9,72.9,29.77,SE,143,16.1,16.1,72,0.00,CLR,,0.01,WeatherDisplay:10.37,2013-06-09 01:13:00,
2013-06-08 20:18:00,82.8,73.3,29.78,SSE,150,13.8,13.8,73,0.00,CLR,,0.01,WeatherDisplay:10.37,2013-06-09 01:18:00,
2013-06-08 20:23:00,82.6,73.5,29.78,SE,131,12.7,12.7,74,0.00,CLR,,0.01,WeatherDisplay:10.37,2013-06-09 01:23:00,
2013-06-08 20:28:00,82.5,73.8,29.78,SE,131,13.8,13.8,75,0.00,CLR,,0.01,WeatherDisplay:10.37,2013-06-09 01:28:00,
2013-06-08 20:33:00,82.3,73.6,29.78,ESE,112,11.0,11.0,75,0.00,CLR,,0.01,WeatherDisplay:10.37,2013-06-09 01:33:00,
2013-06-08 20:38:00,82.1,73.8,29.77,SE,135,11.5,11.5,76,0.00,CLR,,0.01,WeatherDisplay:10.37,2013-06-09 01:38:00,
2013-06-08 20:43:00,82.0,73.7,29.77,SE,133,15.0,15.0,76,0.00,CLR,,0.01,WeatherDisplay:10.37,2013-06-09 01:43:00,
2013-06-08 20:48:00,81.9,74.0,29.78,SE,133,9.2,9.2,77,0.00,CLR,,0.01,WeatherDisplay:10.37,2013-06-09 01:48:00,
2013-06-08 20:53:00,81.8,73.9,29.78,SE,127,11.5,11.5,77,0.00,CLR,,0.01,WeatherDisplay:10.37,2013-06-09 01:53:00,
2013-06-08 20:58:00,81.6,74.1,29.78,SE,135,9.2,9.2,78,0.00,CLR,,0.01,WeatherDisplay:10.37,2013-06-09 01:58:00,
2013-06-08 21:03:00,81.5,74.0,29.78,SE,124,5.8,5.8,78,0.00,CLR,,0.01,WeatherDisplay:10.37,2013-06-09 02:03:00,
2013-06-08 21:08:00,81.4,73.9,29.79,ESE,118,5.8,5.8,78,0.00,CLR,,0.01,WeatherDisplay:10.37,2013-06-09 02:08:00,
2013-06-08 21:13:00,81.3,73.8,29.79,SE,135,10.4,10.4,78,0.00,CLR,,0.01,WeatherDisplay:10.37,2013-06-09 02:13:00,
2013-06-08 21:18:00,81.2,73.7,29.79,SE,129,6.9,6.9,78,0.00,CLR,,0.01,WeatherDisplay:10.37,2013-06-09 02:18:00,
2013-06-08 21:23:00,81.1,73.6,29.79,SE,134,9.2,9.2,78,0.00,CLR,,0.01,WeatherDisplay:10.37,2013-06-09 02:23:00,
2013-06-08 21:28:00,81.1,73.6,29.79,SE,143,8.1,8.1,78,0.00,CLR,,0.01,WeatherDisplay:10.37,2013-06-09 02:28:00,
2013-06-08 21:33:00,81.0,73.5,29.79,SE,130,4.6,4.6,78,0.00,CLR,,0.01,WeatherDisplay:10.37,2013-06-09 02:33:00,
2013-06-08 21:38:00,80.8,73.3,29.79,SE,139,4.6,4.6,78,0.00,CLR,,0.01,WeatherDisplay:10.37,2013-06-09 02:38:00,
2013-06-08 21:43:00,80.7,73.6,29.78,SE,141,5.8,5.8,79,0.00,CLR,,0.01,WeatherDisplay:10.37,2013-06-09 02:43:00,
2013-06-08 21:48:00,80.5,73.4,29.79,South,173,6.9,6.9,79,0.00,CLR,,0.01,WeatherDisplay:10.37,2013-06-09 02:48:00,
2013-06-08 21:53:00,80.6,72.7,29.79,SE,136,6.9,6.9,77,0.00,CLR,,0.01,WeatherDisplay:10.37,2013-06-09 02:53:00,
2013-06-08 21:58:00,80.5,72.6,29.79,SSE,150,5.8,5.8,77,0.00,CLR,,0.01,WeatherDisplay:10.37,2013-06-09 02:58:00,
2013-06-08 22:03:00,80.4,72.5,29.80,East,88,5.8,5.8,77,0.00,CLR,,0.01,WeatherDisplay:10.37,2013-06-09 03:03:00,
2013-06-08 22:08:00,80.3,72.4,29.80,SE,144,6.0,6.0,77,0.00,CLR,,0.01,WeatherDisplay:10.37,2013-06-09 03:08:00,
2013-06-08 22:13:00,80.1,72.2,29.80,ESE,112,3.5,3.5,77,0.00,CLR,,0.01,WeatherDisplay:10.37,2013-06-09 03:13:00,
2013-06-08 22:18:00,79.9,72.0,29.80,SE,143,3.5,3.5,77,0.00,CLR,,0.01,WeatherDisplay:10.37,2013-06-09 03:18:00,
2013-06-08 22:23:00,79.8,71.9,29.81,SE,142,8.1,8.1,77,0.00,CLR,,0.01,WeatherDisplay:10.37,2013-06-09 03:23:00,
2013-06-08 22:28:00,79.8,72.3,29.81,SE,131,11.5,11.5,78,0.00,CLR,,0.01,WeatherDisplay:10.37,2013-06-09 03:28:00,
2013-06-08 22:33:00,79.8,72.3,29.81,South,177,6.0,6.0,78,0.00,CLR,,0.01,WeatherDisplay:10.37,2013-06-09 03:33:00,
2013-06-08 22:38:00,79.6,72.5,29.81,SE,131,4.6,4.6,79,0.00,CLR,,0.01,WeatherDisplay:10.37,2013-06-09 03:38:00,
2013-06-08 22:43:00,79.3,72.2,29.81,SE,140,4.6,4.6,79,0.00,CLR,,0.01,WeatherDisplay:10.37,2013-06-09 03:43:00,
2013-06-08 22:48:00,79.2,72.5,29.82,SE,129,9.2,9.2,80,0.00,CLR,,0.01,WeatherDisplay:10.37,2013-06-09 03:48:00,
2013-06-08 22:53:00,79.2,72.5,29.82,ENE,76,5.8,5.8,80,0.00,CLR,,0.01,WeatherDisplay:10.37,2013-06-09 03:53:00,
2013-06-08 22:58:00,79.0,72.7,29.82,SE,138,4.6,4.6,81,0.00,CLR,,0.01,WeatherDisplay:10.37,2013-06-09 03:58:00,
2013-06-08 23:01:00,78.9,72.6,29.82,SE,142,4.6,4.6,81,0.00,CLR,,0.01,WeatherDisplay:10.37,2013-06-09 04:01:00,
2013-06-08 23:06:00,78.8,72.8,29.82,SE,140,6.9,6.9,82,0.00,CLR,,0.01,WeatherDisplay:10.37,2013-06-09 04:06:00,
2013-06-08 23:11:00,78.6,72.6,29.81,SE,139,9.2,9.2,82,0.00,CLR,,0.01,WeatherDisplay:10.37,2013-06-09 04:11:00,
2013-06-08 23:16:00,78.5,72.9,29.82,SSE,158,5.8,5.8,83,0.00,CLR,,0.01,WeatherDisplay:10.37,2013-06-09 04:16:00,
2013-06-08 23:22:00,78.3,73.1,29.82,SSE,150,3.5,3.5,84,0.00,CLR,,0.01,WeatherDisplay:10.37,2013-06-09 04:22:00,
2013-06-08 23:27:00,78.2,73.0,29.83,SE,142,4.6,4.6,84,0.00,CLR,,0.01,WeatherDisplay:10.37,2013-06-09 04:27:00,
2013-06-08 23:32:00,78.1,72.9,29.83,SSE,165,3.5,3.5,84,0.00,CLR,,0.01,WeatherDisplay:10.37,2013-06-09 04:32:00,
2013-06-08 23:37:00,78.0,73.1,29.83,SE,138,3.5,3.5,85,0.00,CLR,,0.01,WeatherDisplay:10.37,2013-06-09 04:37:00,
2013-06-08 23:42:00,77.9,73.0,29.83,SE,138,2.3,2.3,85,0.00,CLR,,0.01,WeatherDisplay:10.37,2013-06-09 04:42:00,
2013-06-08 23:47:00,77.8,72.9,29.83,ESE,121,2.3,2.3,85,0.00,CLR,,0.01,WeatherDisplay:10.37,2013-06-09 04:47:00,
2013-06-08 23:52:00,77.7,73.2,29.83,SE,134,1.1,1.1,86,0.00,CLR,,0.01,WeatherDisplay:10.37,2013-06-09 04:52:00,
2013-06-08 23:57:00,77.6,73.1,29.83,SE,136,3.5,3.5,86,0.00,CLR,,0.01,WeatherDisplay:10.37,2013-06-09 04:57:00,